Location: Domont
(49.0278°N, 2.3264°E)
Time: 04:00:29
(UTC+00:00)

Orbus 7S? - Pass Details

Date: 29 May 2022
Orbit: 345 x 6369 km, 56.9° (Epoch: 01 July)

Event Time Altitude Azimuth Distance (km) Brightness Sun altitude
Exits shadow 21:50:00 18° 148° (SSE) 3,867 6.9 -14.5°
Maximum altitude 21:58:11 33° 98° (E) 4,265 7.5 -15.1°
Drops below altitude 10° 22:19:43 10° 47° (NE) 8,681 9.6 -16.5°
Sets 22:29:08 0° 42° (NE) 10,460 10.2 -17.1°
